Hourly Weather Roundup
Issued by NWS Central Illinois

Home | Current Version | Previous Version | Text Only | Print | Product List | Glossary On
Versions: 1 2 3 4 5 6 7 8 9 10 11 12 13 14 15 16 17 18 19 20 21 22 23 24 25 26 27 28 29 30 31 32 33 34 35 36 37 38 39 40 41 42 43 44 45 46 47 48 49 50
000
NZUS43 KILX 020110
HWRILX

AREA WEATHER ROUNDUP
NATIONAL WEATHER SERVICE, LINCOLN IL
800 PM CDT MON SEP 01 2014


CITY           SKY/WX    TMP DP  RH WIND       PRES   REMARKS
BLOOMINGTON    CLEAR     72  65  78 SW7       29.88R
CHAMPAIGN      CLEAR     72  66  81 SW7       29.89R
DECATUR        CLEAR     76  66  71 SW8       29.88R
FLORA          CLEAR     73  68  85 SW6       29.93R
GALESBURG      PTCLDY    72  68  87 SW6       29.85R
JACKSONVILLE   PTCLDY    77  69  76 S6        29.87F
LACON          CLEAR     74  66  75 SW5       29.83R
LAWRENCEVILLE  CLEAR     76  72  87 SW6       29.92R
LITCHFIELD     CLOUDY    73  69  88 S5        29.90S
$$


CITY           SKY/WX    TMP DP  RH WIND       PRES   REMARKS
LINCOLN        CLEAR     77  66  69 CALM      29.84R
MACOMB         PTCLDY    73  67  83 SW3       29.87R
MATTOON        CLEAR     75  67  76 S7        29.90R
MT CARMEL AP   PTCLDY    79  72  78 SW8       29.92R HX  82
OLNEY-NOBLE AP PTCLDY    75  72  88 CALM      29.92S
PARIS          CLEAR     72  67  85 S5        29.90S
PEORIA         CLEAR     76  66  71 SW7       29.85R
PONTIAC        CLEAR     75  68  78 SW6       29.84S
RANTOUL        CLEAR     73  65  78 SW5       29.88R
ROBINSON       PTCLDY    74  71  90 SW3       29.92R
SPRINGFIELD    CLEAR     77  67  71 SW5       29.86F
TAYLORVILLE    MOCLDY    73  68  83 S5        29.87F
$$

...REGIONAL REPORTS...


CITY           SKY/WX    TMP DP  RH WIND       PRES   REMARKS
CHICAGO O`HARE PTCLDY    77  63  61 SW13      29.79R
KANKAKEE       CLEAR     71  67  88 SW8       29.84S
MOLINE         CLEAR     73  66  78 W8        29.82R
MOUNT VERNON   CLOUDY    75  66  73 CALM      29.93S
PITTSFIELD     CLOUDY    76  68  75 CALM      29.86F
QUINCY         CLOUDY    76  68  76 CALM      29.85F
ROCKFORD       MOCLDY    70  65  84 SW6       29.82R
$$


CITY           SKY/WX    TMP DP  RH WIND       PRES   REMARKS
BURLINGTON     LGT RAIN  73  68  84 SW5       29.84R
CEDAR RAPIDS   CLEAR     69  65  86 W6        29.82S
DES MOINES     CLOUDY    73  64  73 W5        29.85S
KIRKSVILLE     PTCLDY    72  69  90 W3        29.86S
OTTUMWA        MOCLDY    71  66  84 W3        29.84S
ST LOUIS       CLOUDY    77  70  78 N3        29.89F
$$


CITY           SKY/WX    TMP DP  RH WIND       PRES   REMARKS
TERRE HAUTE    PTCLDY    75  66  73 S7        29.91R
EVANSVILLE     PTCLDY    79  72  79 SW7       29.95S HX  82
INDIANAPOLIS   MOCLDY    76  69  79 SW7       29.90R
LAFAYETTE      PTCLDY    73  65  75 SW6       29.86S
MADISON        PTCLDY    67  65  93 CALM      29.79R
MILWAUKEE      MOCLDY    71  64  78 SW8       29.77S
$$




USA.gov is the U.S. government's official web portal to all federal, state and local government web resources and services.